DAL1061 KLAX-KSFO

Flight info

Callsign DAL1061
Flight time 1h 0m
Altitude 38000
Route SUMMR2 STOKD SERFR SERFR4
Aircraft A319/M-SDE3FGHIRWY/LB1

Departure

Time 2026-04-20 20:26
Airport Los Angeles International Airport (KLAX)

Arrival

Time 2026-04-20 21:26
Airport San Francisco International Airport (KSFO)
Time Latitude Longitude Altitude Speed Heading
2026-04-20 20:07 33.94672 -118.40345 126 ft 0 kts 265°
2026-04-20 20:09 33.94709 -118.40333 110 ft 0 kts 234°
2026-04-20 20:15 33.94713 -118.40325 124 ft 2 kts 232°
2026-04-20 20:16 33.94715 -118.40323 125 ft 0 kts 232°
2026-04-20 20:18 33.94718 -118.40317 120 ft 0 kts 231°
2026-04-20 20:20 33.94723 -118.40310 122 ft 2 kts 229°
2026-04-20 20:20 33.94733 -118.40294 123 ft 2 kts 237°
2026-04-20 20:20 33.94741 -118.40277 125 ft 2 kts 261°
2026-04-20 20:20 33.94737 -118.40259 124 ft 2 kts 347°
2026-04-20 20:21 33.94727 -118.40257 120 ft 1 kts 352°
2026-04-20 20:21 33.94726 -118.40256 120 ft 0 kts 353°
2026-04-20 20:22 33.94728 -118.40257 120 ft 1 kts 354°
2026-04-20 20:22 33.94754 -118.40261 123 ft 7 kts 352°
2026-04-20 20:22 33.94826 -118.40280 124 ft 14 kts 338°
2026-04-20 20:22 33.94900 -118.40245 124 ft 15 kts 73°
2026-04-20 20:23 33.94917 -118.40095 124 ft 21 kts 84°
2026-04-20 20:23 33.94939 -118.39942 126 ft 13 kts 62°
2026-04-20 20:23 33.94951 -118.39927 124 ft 0 kts 38°
2026-04-20 20:24 33.95017 -118.39916 123 ft 15 kts 349°
2026-04-20 20:24 33.95039 -118.39986 124 ft 0 kts 263°
2026-04-20 20:24 33.95039 -118.39985 124 ft 0 kts 263°
2026-04-20 20:25 33.95035 -118.40026 126 ft 26 kts 263°
2026-04-20 20:25 33.94978 -118.40571 126 ft 102 kts 263°
2026-04-20 20:25 33.94870 -118.41647 166 ft 154 kts 263°
2026-04-20 20:26 33.94751 -118.42971 765 ft 158 kts 261°
2026-04-20 20:26 33.94628 -118.44283 1615 ft 157 kts 262°
2026-04-20 20:26 33.94492 -118.45624 2278 ft 169 kts 261°
2026-04-20 20:26 33.94352 -118.47120 2655 ft 191 kts 264°
2026-04-20 20:27 33.94271 -118.48818 2996 ft 215 kts 266°
2026-04-20 20:27 33.94211 -118.50733 3410 ft 241 kts 267°
2026-04-20 20:27 33.94097 -118.52846 3976 ft 263 kts 264°
2026-04-20 20:27 33.93932 -118.55079 4705 ft 272 kts 263°
2026-04-20 20:28 33.93746 -118.57358 5089 ft 277 kts 263°
2026-04-20 20:28 33.93553 -118.59659 6143 ft 276 kts 262°
2026-04-20 20:28 33.93360 -118.61961 7146 ft 278 kts 262°
2026-04-20 20:28 33.93170 -118.64289 8092 ft 281 kts 262°
2026-04-20 20:29 33.92983 -118.66645 9045 ft 284 kts 262°
2026-04-20 20:29 33.92799 -118.69025 10005 ft 287 kts 262°
2026-04-20 20:29 33.92609 -118.71480 10518 ft 306 kts 262°
2026-04-20 20:29 33.92402 -118.74105 11012 ft 321 kts 262°
2026-04-20 20:30 33.92190 -118.76810 11700 ft 328 kts 261°
2026-04-20 20:30 33.91975 -118.79547 11944 ft 329 kts 261°
2026-04-20 20:30 33.91764 -118.82285 12005 ft 328 kts 262°
2026-04-20 20:30 33.91747 -118.85048 12134 ft 335 kts 269°
2026-04-20 20:31 33.91843 -118.87859 13019 ft 336 kts 269°
2026-04-20 20:31 33.91927 -118.90669 13910 ft 337 kts 268°
2026-04-20 20:31 33.92007 -118.93500 14657 ft 340 kts 268°
2026-04-20 20:31 33.92084 -118.96354 15394 ft 342 kts 268°
2026-04-20 20:32 33.92212 -118.99231 16122 ft 347 kts 273°
2026-04-20 20:32 33.92770 -119.02094 16837 ft 356 kts 284°
2026-04-20 20:32 33.93849 -119.04816 17549 ft 366 kts 296°
2026-04-20 20:32 33.95211 -119.07427 18260 ft 369 kts 296°
2026-04-20 20:33 33.96580 -119.10063 18877 ft 373 kts 296°
2026-04-20 20:33 33.97955 -119.12724 19476 ft 376 kts 296°
2026-04-20 20:33 33.99340 -119.15413 20086 ft 379 kts 296°
2026-04-20 20:33 34.00910 -119.18006 20669 ft 389 kts 306°
2026-04-20 20:34 34.02901 -119.20269 21255 ft 399 kts 317°
2026-04-20 20:34 34.05174 -119.22230 21849 ft 404 kts 320°
2026-04-20 20:34 34.07474 -119.24193 22435 ft 407 kts 320°
2026-04-20 20:34 34.09788 -119.26177 23005 ft 410 kts 320°
2026-04-20 20:35 34.12123 -119.28185 23593 ft 413 kts 320°
2026-04-20 20:35 34.14473 -119.30206 24083 ft 417 kts 320°
2026-04-20 20:35 34.16839 -119.32247 24555 ft 419 kts 320°
2026-04-20 20:35 34.19216 -119.34303 25021 ft 422 kts 320°
2026-04-20 20:36 34.21613 -119.36374 25478 ft 424 kts 320°
2026-04-20 20:36 34.24022 -119.38454 25927 ft 427 kts 320°
2026-04-20 20:36 34.26448 -119.40549 26371 ft 430 kts 320°
2026-04-20 20:36 34.28884 -119.42656 26808 ft 432 kts 320°
2026-04-20 20:37 34.31338 -119.44781 27242 ft 435 kts 320°
2026-04-20 20:37 34.33804 -119.46918 27668 ft 437 kts 320°
2026-04-20 20:37 34.36282 -119.49066 28080 ft 440 kts 320°
2026-04-20 20:37 34.38778 -119.51227 28509 ft 443 kts 320°
2026-04-20 20:38 34.41228 -119.53484 28930 ft 443 kts 315°
2026-04-20 20:38 34.43427 -119.56086 29351 ft 443 kts 310°
2026-04-20 20:38 34.45592 -119.58757 29768 ft 445 kts 310°
2026-04-20 20:38 34.47770 -119.61438 30179 ft 448 kts 311°
2026-04-20 20:39 34.49966 -119.64136 30508 ft 450 kts 310°
2026-04-20 20:39 34.52173 -119.66847 30848 ft 453 kts 311°
2026-04-20 20:39 34.54393 -119.69573 31184 ft 455 kts 310°
2026-04-20 20:39 34.56620 -119.72313 31513 ft 457 kts 310°
2026-04-20 20:40 34.58856 -119.75072 31845 ft 459 kts 310°
2026-04-20 20:40 34.61091 -119.77835 32312 ft 458 kts 310°
2026-04-20 20:40 34.63321 -119.80594 32765 ft 457 kts 310°
2026-04-20 20:40 34.65545 -119.83347 33205 ft 456 kts 310°
2026-04-20 20:41 34.67761 -119.86091 33652 ft 455 kts 310°
2026-04-20 20:41 34.69979 -119.88841 34094 ft 455 kts 310°
2026-04-20 20:41 34.72193 -119.91586 34486 ft 454 kts 310°
2026-04-20 20:41 34.74404 -119.94330 34851 ft 454 kts 310°
2026-04-20 20:42 34.76608 -119.97070 35194 ft 453 kts 310°
2026-04-20 20:42 34.78809 -119.99808 35552 ft 452 kts 310°
2026-04-20 20:42 34.81007 -120.02541 35894 ft 451 kts 310°
2026-04-20 20:42 34.83199 -120.05267 36256 ft 450 kts 310°
2026-04-20 20:43 34.85385 -120.07986 36589 ft 449 kts 310°
2026-04-20 20:43 34.87571 -120.10709 36929 ft 449 kts 309°
2026-04-20 20:43 34.89747 -120.13426 37253 ft 448 kts 309°
2026-04-20 20:43 34.91920 -120.16144 37592 ft 447 kts 309°
2026-04-20 20:44 34.94084 -120.18856 37911 ft 446 kts 309°
2026-04-20 20:44 34.96246 -120.21569 38046 ft 446 kts 309°
2026-04-20 20:44 35.00563 -120.26978 38061 ft 444 kts 309°
2026-04-20 20:45 35.04864 -120.32373 38058 ft 443 kts 309°
2026-04-20 20:45 35.09169 -120.37770 38061 ft 444 kts 310°
2026-04-20 20:46 35.13663 -120.42966 38074 ft 446 kts 313°
2026-04-20 20:46 35.18297 -120.48016 38081 ft 446 kts 313°
2026-04-20 20:47 35.22940 -120.53125 38070 ft 446 kts 313°
2026-04-20 20:47 35.27507 -120.58258 38078 ft 446 kts 312°
2026-04-20 20:48 35.31299 -120.62550 38077 ft 446 kts 312°
2026-04-20 20:48 35.35860 -120.67711 38079 ft 446 kts 312°
2026-04-20 20:49 35.40431 -120.72869 38085 ft 447 kts 312°
2026-04-20 20:49 35.44998 -120.78029 38079 ft 446 kts 312°
2026-04-20 20:50 35.49677 -120.83063 38092 ft 450 kts 318°
2026-04-20 20:50 35.54680 -120.87689 38088 ft 451 kts 318°
2026-04-20 20:51 35.59690 -120.92328 38087 ft 451 kts 318°
2026-04-20 20:51 35.64696 -120.96980 38086 ft 451 kts 318°
2026-04-20 20:52 35.69702 -121.01650 38088 ft 452 kts 318°
2026-04-20 20:52 35.74709 -121.06322 38088 ft 452 kts 318°
2026-04-20 20:53 35.79752 -121.11038 37458 ft 460 kts 318°
2026-04-20 20:53 35.82294 -121.13418 36988 ft 456 kts 318°
2026-04-20 20:53 35.84813 -121.15774 36454 ft 454 kts 318°
2026-04-20 20:54 35.87318 -121.18117 35935 ft 451 kts 318°
2026-04-20 20:54 35.89815 -121.20453 35410 ft 449 kts 318°
2026-04-20 20:54 35.92295 -121.22775 34883 ft 447 kts 318°
2026-04-20 20:54 35.94770 -121.25095 34344 ft 446 kts 318°
2026-04-20 20:55 35.97237 -121.27410 33785 ft 445 kts 318°
2026-04-20 20:55 35.99692 -121.29720 33249 ft 442 kts 318°
2026-04-20 20:55 36.02128 -121.32018 32725 ft 439 kts 317°
2026-04-20 20:55 36.04551 -121.34307 32200 ft 437 kts 317°
2026-04-20 20:56 36.06978 -121.36554 31701 ft 436 kts 321°
2026-04-20 20:56 36.09533 -121.38567 31243 ft 434 kts 323°
2026-04-20 20:56 36.12074 -121.40547 30775 ft 431 kts 322°
2026-04-20 20:56 36.14602 -121.42519 30316 ft 429 kts 322°
2026-04-20 20:57 36.17119 -121.44483 29822 ft 426 kts 322°
2026-04-20 20:57 36.19617 -121.46429 29383 ft 421 kts 322°
2026-04-20 20:57 36.22082 -121.48349 28949 ft 417 kts 322°
2026-04-20 20:57 36.24529 -121.50257 28530 ft 413 kts 321°
2026-04-20 20:58 36.26950 -121.52149 28123 ft 410 kts 321°
2026-04-20 20:58 36.29353 -121.54032 27704 ft 407 kts 321°
2026-04-20 20:58 36.31733 -121.55897 27284 ft 402 kts 321°
2026-04-20 20:58 36.34091 -121.57747 26860 ft 400 kts 321°
2026-04-20 20:59 36.36431 -121.59582 26427 ft 397 kts 320°
2026-04-20 20:59 36.38765 -121.61414 26005 ft 395 kts 320°
2026-04-20 20:59 36.41081 -121.63240 25557 ft 394 kts 320°
2026-04-20 20:59 36.43422 -121.65088 25109 ft 393 kts 320°
2026-04-20 21:00 36.45724 -121.66903 24652 ft 391 kts 320°
2026-04-20 21:00 36.48021 -121.68713 24183 ft 391 kts 320°
2026-04-20 21:00 36.50317 -121.70520 23720 ft 391 kts 320°
2026-04-20 21:00 36.52610 -121.72333 23205 ft 390 kts 319°
2026-04-20 21:01 36.54889 -121.74133 22739 ft 387 kts 319°
2026-04-20 21:01 36.57151 -121.75919 22304 ft 384 kts 319°
2026-04-20 21:01 36.59402 -121.77700 21852 ft 382 kts 319°
2026-04-20 21:01 36.61637 -121.79470 21417 ft 380 kts 319°
2026-04-20 21:02 36.63857 -121.81234 20984 ft 378 kts 319°
2026-04-20 21:02 36.66067 -121.82990 20550 ft 376 kts 319°
2026-04-20 21:02 36.68261 -121.84734 20123 ft 374 kts 319°
2026-04-20 21:02 36.70451 -121.86478 19703 ft 372 kts 319°
2026-04-20 21:03 36.72633 -121.88211 19287 ft 371 kts 319°
2026-04-20 21:03 36.74738 -121.90030 18884 ft 364 kts 312°
2026-04-20 21:03 36.76654 -121.92033 18602 ft 357 kts 311°
2026-04-20 21:03 36.78553 -121.94019 18042 ft 354 kts 311°
2026-04-20 21:04 36.80427 -121.95977 17678 ft 349 kts 311°
2026-04-20 21:04 36.82280 -121.97923 17308 ft 347 kts 312°
2026-04-20 21:04 36.84124 -121.99860 16930 ft 346 kts 312°
2026-04-20 21:04 36.85962 -122.01796 16529 ft 345 kts 312°
2026-04-20 21:05 36.87794 -122.03729 16151 ft 344 kts 313°
2026-04-20 21:05 36.89624 -122.05658 15766 ft 344 kts 313°
2026-04-20 21:05 36.91451 -122.07585 15382 ft 343 kts 313°
2026-04-20 21:05 36.93276 -122.09507 14998 ft 343 kts 314°
2026-04-20 21:06 36.95103 -122.11430 14613 ft 343 kts 314°
2026-04-20 21:06 36.96922 -122.13350 14297 ft 341 kts 314°
2026-04-20 21:06 36.98741 -122.15272 13927 ft 341 kts 314°
2026-04-20 21:06 37.00542 -122.17173 13455 ft 337 kts 314°
2026-04-20 21:07 37.02317 -122.19049 13064 ft 332 kts 314°
2026-04-20 21:07 37.04073 -122.20904 12694 ft 330 kts 314°
2026-04-20 21:07 37.05820 -122.22754 12326 ft 327 kts 314°
2026-04-20 21:07 37.07550 -122.24587 11964 ft 325 kts 315°
2026-04-20 21:08 37.09272 -122.26415 11593 ft 323 kts 314°
2026-04-20 21:08 37.10984 -122.28235 11229 ft 322 kts 314°
2026-04-20 21:08 37.12688 -122.30053 10896 ft 320 kts 314°
2026-04-20 21:08 37.14364 -122.31874 10691 ft 319 kts 313°
2026-04-20 21:09 37.16027 -122.33705 10462 ft 317 kts 313°
2026-04-20 21:09 37.17674 -122.35523 10228 ft 314 kts 313°
2026-04-20 21:09 37.19309 -122.37324 10009 ft 312 kts 313°
2026-04-20 21:09 37.20937 -122.39118 9775 ft 311 kts 313°
2026-04-20 21:10 37.22562 -122.40910 9546 ft 311 kts 313°
2026-04-20 21:10 37.24179 -122.42694 9320 ft 309 kts 313°
2026-04-20 21:10 37.25794 -122.44473 9110 ft 308 kts 313°
2026-04-20 21:10 37.27402 -122.46243 8881 ft 307 kts 313°
2026-04-20 21:11 37.29000 -122.48009 8645 ft 305 kts 313°
2026-04-20 21:11 37.30594 -122.49768 8442 ft 305 kts 313°
2026-04-20 21:11 37.32185 -122.51524 8226 ft 304 kts 313°
2026-04-20 21:11 37.33766 -122.53273 8009 ft 302 kts 313°
2026-04-20 21:12 37.35339 -122.55016 7791 ft 300 kts 313°
2026-04-20 21:12 37.36902 -122.56749 7565 ft 299 kts 313°
2026-04-20 21:12 37.38460 -122.58471 7368 ft 298 kts 313°
2026-04-20 21:12 37.40014 -122.60188 7148 ft 297 kts 313°
2026-04-20 21:13 37.41564 -122.61904 6937 ft 296 kts 313°
2026-04-20 21:13 37.43106 -122.63610 6722 ft 295 kts 313°
2026-04-20 21:13 37.44639 -122.65312 6513 ft 294 kts 313°
2026-04-20 21:13 37.46143 -122.66981 6381 ft 282 kts 313°
2026-04-20 21:14 37.47585 -122.68572 6261 ft 270 kts 313°
2026-04-20 21:14 37.48967 -122.70101 6141 ft 259 kts 312°
2026-04-20 21:14 37.50290 -122.71569 6024 ft 248 kts 312°
2026-04-20 21:14 37.51589 -122.72925 6021 ft 238 kts 315°
2026-04-20 21:15 37.52900 -122.74189 6020 ft 237 kts 316°
2026-04-20 21:15 37.54238 -122.75409 6017 ft 241 kts 323°
2026-04-20 21:15 37.55860 -122.76002 5877 ft 248 kts 354°
2026-04-20 21:15 37.57581 -122.75947 5604 ft 247 kts
2026-04-20 21:16 37.59292 -122.75803 5324 ft 245 kts
2026-04-20 21:16 37.60987 -122.75641 5051 ft 244 kts
2026-04-20 21:16 37.62677 -122.75476 4781 ft 243 kts
2026-04-20 21:16 37.64355 -122.75301 4502 ft 242 kts
2026-04-20 21:17 37.66032 -122.75116 4249 ft 242 kts
2026-04-20 21:17 37.67702 -122.74922 4070 ft 239 kts
2026-04-20 21:17 37.69360 -122.74717 4006 ft 238 kts
2026-04-20 21:17 37.70964 -122.74510 4008 ft 227 kts
2026-04-20 21:18 37.72489 -122.74131 3997 ft 223 kts 24°
2026-04-20 21:18 37.73715 -122.72980 4013 ft 219 kts 56°
2026-04-20 21:18 37.74367 -122.71307 3818 ft 208 kts 86°
2026-04-20 21:18 37.74355 -122.69612 3804 ft 180 kts 110°
2026-04-20 21:19 37.74122 -122.68117 3727 ft 166 kts 112°
2026-04-20 21:19 37.73911 -122.66730 3687 ft 163 kts 112°
2026-04-20 21:19 37.73667 -122.65245 3658 ft 178 kts 112°
2026-04-20 21:20 37.73173 -122.62148 3575 ft 180 kts 111°
2026-04-20 21:20 37.72840 -122.60643 3534 ft 175 kts 123°
2026-04-20 21:20 37.72270 -122.59323 3501 ft 170 kts 131°
2026-04-20 21:20 37.71667 -122.58046 3381 ft 166 kts 131°
2026-04-20 21:21 37.71095 -122.56822 3198 ft 158 kts 132°
2026-04-20 21:21 37.70548 -122.55653 3002 ft 152 kts 133°
2026-04-20 21:21 37.70017 -122.54525 2801 ft 147 kts 133°
2026-04-20 21:21 37.69532 -122.53497 2618 ft 142 kts 134°
2026-04-20 21:22 37.69033 -122.52437 2426 ft 139 kts 134°
2026-04-20 21:22 37.68533 -122.51379 2227 ft 136 kts 134°
2026-04-20 21:22 37.68061 -122.50377 2036 ft 129 kts 133°
2026-04-20 21:22 37.67614 -122.49428 1869 ft 127 kts 133°
2026-04-20 21:23 37.67163 -122.48476 1688 ft 126 kts 132°
2026-04-20 21:23 37.66704 -122.47514 1502 ft 128 kts 131°
2026-04-20 21:23 37.66235 -122.46533 1321 ft 130 kts 131°
2026-04-20 21:23 37.65779 -122.45568 1155 ft 128 kts 127°
2026-04-20 21:24 37.65313 -122.44587 974 ft 131 kts 129°
2026-04-20 21:24 37.64852 -122.43615 809 ft 128 kts 127°
2026-04-20 21:24 37.64394 -122.42651 639 ft 128 kts 125°
2026-04-20 21:24 37.63918 -122.41648 460 ft 135 kts 125°
2026-04-20 21:25 37.63439 -122.40631 293 ft 134 kts 125°
2026-04-20 21:25 37.63140 -122.39951 191 ft 134 kts 122°
2026-04-20 21:25 37.62705 -122.38921 35 ft 131 kts 122°
2026-04-20 21:25 37.62319 -122.38017 22 ft 98 kts 118°
2026-04-20 21:26 37.62080 -122.37445 16 ft 49 kts 118°
2026-04-20 21:26 37.62002 -122.37258 16 ft 2 kts 117°
2026-04-20 21:26 37.61970 -122.37183 15 ft 27 kts 118°
2026-04-20 21:26 37.61881 -122.37088 17 ft 12 kts 190°
2026-04-20 21:27 37.61829 -122.37112 20 ft 7 kts 203°
2026-04-20 21:27 37.61797 -122.37134 20 ft 6 kts 209°
2026-04-20 21:27 37.61736 -122.37177 20 ft 12 kts 209°
2026-04-20 21:27 37.61664 -122.37229 22 ft 12 kts 210°
2026-04-20 21:28 37.61595 -122.37274 23 ft 11 kts 207°
2026-04-20 21:28 37.61524 -122.37321 24 ft 13 kts 207°